Mount Holly, NJ

10:42 PM EST on December 13, 2017 (GMT -0500)
South Jersey Regional

Weather History for KVAY - January, 2013

Change the Weather History Date:

Tuesday, January 8, 2013

  Actual Average (KPNE) Record (KPNE)
Temperature  
Mean Temperature 36 °F -  
Max Temperature 48 °F 39 °F 68 °F (1998)
Min Temperature 23 °F 25 °F 9 °F (2015)
Degree Days  
Heating Degree Days 30    
Moisture  
Dew Point 28 °F    
Average Humidity 76    
Maximum Humidity 92    
Minimum Humidity 52    
Precipitation  
Precipitation 0.00 in - - ()
Sea Level Pressure  
Sea Level Pressure 30.40 in    
Wind  
Wind Speed 2 mph (SW)    
Max Wind Speed 13 mph    
Max Gust Speed 18 mph    
Visibility 8 miles    
Events      
Averages and records for this station are not official NWS values.
T = Trace of Precipitation, MM = Missing Value Source: NWS Daily Summary

Daily Weather History Graph

Daily Weather History Graph

Search for Another Location

Airport or City:

Trip Planner

Search our weather history database for the weather conditions in past years. The results will help you decide how hot, cold, wet, or windy it might be!

Date:

Astronomy

Jan. 08, 2013 Rise Set
Actual Time 7:21 AM EST 4:51 PM EST
Civil Twilight 6:50 AM EST 5:21 PM EST
Nautical Twilight 6:17 AM EST 5:55 PM EST
Astronomical Twilight 5:44 AM EST 6:28 PM EST
Moon 3:51 AM EST (1/8) 1:51 PM EST (1/8)
Length of Visible Light 10h 30m
Length of Day
9h 30m
Waning Crescent, 14% of the Moon is Illuminated
Jan 8
Waning Crescent
Jan 11
New
Jan 18
First Quarter
Jan 26
Full
Feb 3
Last Quarter

Hourly Weather History & Observations

Time (EST) Temp. Windchill Dew Point Humidity Pressure Visibility Wind Dir Wind Speed Gust Speed Precip Events Conditions
12:54 AM 25.0 °F - 21.9 °F 88% 30.42 in 6.0 mi Calm Calm - N/A   Clear
1:54 AM 24.1 °F - 21.9 °F 91% 30.41 in 6.0 mi Calm Calm - N/A   Clear
2:54 AM 24.1 °F - 21.0 °F 88% 30.41 in 5.0 mi Calm Calm - N/A   Clear
3:54 AM 25.0 °F 20.7 °F 21.0 °F 85% 30.39 in 5.0 mi South 3.5 mph - N/A   Clear
4:54 AM 25.0 °F - 21.9 °F 88% 30.40 in 6.0 mi Calm Calm - N/A   Clear
5:54 AM 23.0 °F - 21.0 °F 92% 30.41 in 4.0 mi Calm Calm - N/A   Clear
6:54 AM 26.1 °F 21.9 °F 21.9 °F 84% 30.43 in 5.0 mi South 3.5 mph - N/A   Clear
7:54 AM 30.0 °F - 27.0 °F 88% 30.44 in 4.0 mi Calm Calm - N/A   Clear
8:54 AM 34.0 °F 31.0 °F 30.0 °F 85% 30.45 in 6.0 mi SSW 3.5 mph - N/A   Clear
9:54 AM 41.0 °F 35.8 °F 30.0 °F 65% 30.44 in 10.0 mi SW 8.1 mph - N/A   Clear
10:54 AM 45.0 °F 40.1 °F 30.0 °F 56% 30.42 in 10.0 mi SW 9.2 mph 17.3 mph N/A   Clear
11:54 AM 46.9 °F - 30.0 °F 52% 30.40 in 10.0 mi SW 10.4 mph - N/A   Clear
12:54 PM 48.0 °F - 30.9 °F 52% 30.37 in 10.0 mi WSW 9.2 mph - N/A   Clear
1:54 PM 48.0 °F - 30.9 °F 52% 30.37 in 10.0 mi WSW 8.1 mph 17.3 mph N/A   Clear
2:54 PM 48.9 °F - 32.0 °F 52% 30.38 in 10.0 mi WSW 12.7 mph 18.4 mph N/A   Clear
3:54 PM 46.9 °F - 32.0 °F 56% 30.39 in 10.0 mi West 5.8 mph - N/A   Clear
4:54 PM 46.0 °F - 32.0 °F 58% 30.39 in 10.0 mi Calm Calm - N/A   Clear
5:54 PM 39.0 °F - 30.9 °F 73% 30.39 in 10.0 mi Calm Calm - N/A   Clear
6:54 PM 37.0 °F - 30.9 °F 79% 30.40 in 10.0 mi Calm Calm - N/A   Clear
7:54 PM 33.1 °F - 28.9 °F 85% 30.40 in 10.0 mi Calm Calm - N/A   Clear
8:54 PM 33.1 °F - 28.9 °F 85% 30.38 in 10.0 mi Calm Calm - N/A   Clear
9:54 PM 32.0 °F - 28.0 °F 85% 30.40 in 10.0 mi Calm Calm - N/A   Mostly Cloudy
10:54 PM 34.0 °F - 30.0 °F 85% 30.42 in 10.0 mi Calm Calm - N/A   Overcast
11:54 PM 34.0 °F - 30.9 °F 89% 30.40 in 10.0 mi Calm Calm - N/A   Overcast